Location: Fredericksburg
(30.2750°N, 98.8720°W)
Time: 18:08:18
(UTC-05:00)

Amateur Radio Satellites - All Passes

Search period start: 24 October 2014 17:38
Search period end: 25 October 2014 17:38
Location: Fredericksburg, 30.2750°N, 98.8720°W

Satellite Date Start Highest point End Downlink Frequencies (MHz)
Time Altitude Azimuth
Saudisat 1A 24 Oct 17:46:05 17:50:28 62° 61° (ENE) 17:54:49 436.775 MHz
Uosat F 24 Oct 17:49:08 17:53:55 46° 260° (W) 17:58:45 435.120 FM
OPAL 24 Oct 17:57:42 18:01:25 21° 98° (E) 18:05:07 ?
AO-7 24 Oct 18:08:58 18:16:23 37° 260° (W) 18:23:50 29.400 - 29.500 MHz
JAS-2 24 Oct 18:45:07 18:50:44 70° 259° (W) 18:57:09 435.800 - 435.900 CW/SSB, 435.910 FM
Hamsat 24 Oct 19:10:45 19:14:46 43° 261° (W) 19:18:46 145.90 MHz
OPAL 24 Oct 19:35:55 19:40:16 32° 291° (WNW) 19:44:35 ?
STRAND 1 24 Oct 19:41:12 19:45:36 28° 97° (E) 19:49:57 ?
AO-40 24 Oct 19:59:34 22:46:34 47° 197° (SSW) 04:34:14 Beacon 2401.320
ISS 24 Oct 20:15:36 20:18:10 20° 38° (NE) 20:20:43 145.800 FM
SO-67 24 Oct 20:32:49 20:35:51 29° 262° (W) 20:38:54 435.3500 MHz FM
RS-15 24 Oct 20:40:59 20:43:41 11° 99° (E) 20:46:21 29.354 - 29.394 USB, Beacon 29.352 USB
HO-68 24 Oct 21:00:37 21:06:56 35° 67° (ENE) 21:13:15 435.675 MHz FM
STRAND 1 24 Oct 21:20:26 21:24:36 26° 290° (WNW) 21:28:46 ?
Oscar 11 24 Oct 21:28:47 21:29:30 10° 67° (ENE) 21:30:12 145.825 FM, Beacon 2401.500 USB
KITSAT 1 24 Oct 21:30:06 21:36:43 27° 53° (NE) 21:43:17 435.175 FM
SO-50 24 Oct 21:43:15 21:44:09 10° 49° (NE) 21:45:03 436.795 FM
ISS 24 Oct 21:51:58 21:54:49 26° 232° (SW) 21:57:40 145.800 FM
ZACube-1 24 Oct 22:15:24 22:18:20 17° 70° (ENE) 22:21:16 437.345 MHz
UKube-1 24 Oct 22:19:19 22:23:32 53° 75° (ENE) 22:27:47 145.840 MHz, 145.915 MHz
RS-15 24 Oct 22:43:11 22:54:15 76° 113° (ESE) 23:05:07 29.354 - 29.394 USB, Beacon 29.352 USB
HO-68 24 Oct 22:48:05 22:54:28 35° 261° (W) 23:00:54 435.675 MHz FM
FUNcube-1 24 Oct 22:58:24 23:02:53 54° 76° (ENE) 23:07:19 145.950 - 145.970 MHz USB
Oscar 11 24 Oct 23:00:58 23:05:10 50° 260° (W) 23:09:23 145.825 FM, Beacon 2401.500 USB
SO-50 24 Oct 23:20:22 23:25:15 83° 244° (WSW) 23:30:08 436.795 FM
KITSAT 1 24 Oct 23:24:35 23:32:26 58° 249° (WSW) 23:40:16 435.175 FM
MaSat-1 24 Oct 23:47:33 23:51:31 37° 108° (ESE) 23:55:13 437.345 MHz
ZACube-1 24 Oct 23:50:13 23:54:25 35° 262° (W) 23:58:35 437.345 MHz
FUNcube-1 25 Oct 00:39:05 00:39:26 10° 267° (W) 00:39:47 145.950 - 145.970 MHz USB
UOSAT-12 25 Oct 00:44:13 00:48:51 61° 61° (ENE) 00:53:24 437.025 FM, 437.400 FM
RS-15 25 Oct 00:58:51 01:07:33 26° 314° (NW) 01:16:18 29.354 - 29.394 USB, Beacon 29.352 USB
Oscar 10/S400 25 Oct 01:10:43 02:27:01 34° 240° (WSW) 06:42:04 145.825 - 145.975 CW/USB, Beacon 145.810 USB
MaSat-1 25 Oct 01:25:03 01:27:09 14° 298° (WNW) 01:29:11 437.345 MHz
Oscar 19 25 Oct 02:00:44 02:03:42 15° 94° (E) 02:06:39 437.125 CW, 437.150 USB
AO-Echo 25 Oct 02:39:46 02:43:46 21° 95° (E) 02:47:43 ?
Oscar 16 25 Oct 02:44:49 02:49:46 49° 100° (E) 02:54:42 437.025 USB, Beacon 2401.1428
JAS-1B 25 Oct 02:47:10 02:54:01 50° 102° (ESE) 03:02:09 435.800 - 435.900 CW/SSB
PCSat 25 Oct 03:03:14 03:05:43 13° 103° (ESE) 03:08:13 145.825 MHz
Uribyol 2 25 Oct 03:05:03 03:09:36 30° 98° (E) 03:14:05 436.500 FM
ITAMSAT 1 25 Oct 03:11:02 03:15:41 33° 98° (E) 03:20:19 435.822 SSB
Gurwin Techsat 1B 25 Oct 03:32:01 03:36:28 27° 97° (E) 03:40:53 435.225 FM
Oscar 19 25 Oct 03:38:19 03:43:10 45° 287° (WNW) 03:48:00 437.125 CW, 437.150 USB
TMSAT-1 25 Oct 03:43:15 03:47:33 25° 97° (E) 03:51:50 436.925 FM
AO-27 25 Oct 03:56:15 04:01:29 81° 284° (WNW) 04:06:41 436.795 MHz FM
AO-Echo 25 Oct 04:17:41 04:22:30 36° 288° (WNW) 04:27:17 ?
Sapphire 25 Oct 04:20:38 04:26:00 78° 113° (ESE) 04:31:25 437.095 MHz 1200 baud AX-25 AFSK
Oscar 16 25 Oct 04:25:51 04:28:39 15° 293° (WNW) 04:31:27 437.025 USB, Beacon 2401.1428
AO-7 25 Oct 04:25:53 04:30:58 17° 95° (E) 04:36:01 29.400 - 29.500 MHz
JAS-1B 25 Oct 04:38:46 04:44:21 26° 291° (WNW) 04:50:42 435.800 - 435.900 CW/SSB
PCSat 25 Oct 04:43:15 04:48:33 58° 296° (WNW) 04:53:53 145.825 MHz
Uribyol 2 25 Oct 04:44:43 04:48:51 25° 291° (WNW) 04:52:58 436.500 FM
ITAMSAT 1 25 Oct 04:50:55 04:54:56 23° 291° (WNW) 04:58:56 435.822 SSB
OPAL 25 Oct 05:07:14 05:11:07 22° 67° (ENE) 05:14:57 ?
Gurwin Techsat 1B 25 Oct 05:11:49 05:16:17 28° 290° (WNW) 05:20:45 435.225 FM
TMSAT-1 25 Oct 05:22:48 05:27:23 30° 289° (WNW) 05:31:56 436.925 FM
RS-15 25 Oct 05:42:46 05:46:40 12° 30° (NNE) 05:50:36 29.354 - 29.394 USB, Beacon 29.352 USB
JAS-2 25 Oct 06:00:34 06:07:00 27° 95° (E) 06:13:16 435.800 - 435.900 CW/SSB, 435.910 FM
Uosat F 25 Oct 06:02:24 06:07:28 88° 103° (ESE) 06:12:30 435.120 FM
Sapphire 25 Oct 06:08:00 06:09:59 12° 308° (NW) 06:11:59 437.095 MHz 1200 baud AX-25 AFSK
AO-7 25 Oct 06:15:57 06:24:15 76° 289° (WNW) 06:32:33 29.400 - 29.500 MHz
PANSAT 25 Oct 06:40:46 06:43:36 20° 158° (SSE) 06:46:25 not established
OPAL 25 Oct 06:45:03 06:49:43 34° 259° (W) 06:54:22 ?
STRAND 1 25 Oct 06:51:58 06:55:56 23° 69° (ENE) 06:59:55 ?
Hamsat 25 Oct 07:01:50 07:05:54 48° 100° (E) 07:09:59 145.90 MHz
JAS-2 25 Oct 07:44:34 07:52:05 52° 288° (WNW) 07:59:29 435.800 - 435.900 CW/SSB, 435.910 FM
Saudisat 1A 25 Oct 07:46:49 07:51:07 65° 115° (ESE) 07:55:29 436.775 MHz
RS-15 25 Oct 07:51:39 08:02:31 51° 57° (ENE) 08:13:46 29.354 - 29.394 USB, Beacon 29.352 USB
SO-67 25 Oct 08:01:38 08:04:29 24° 97° (E) 08:07:19 435.3500 MHz FM
AO-7 25 Oct 08:12:33 08:15:40 13° 305° (NW) 08:18:48 29.400 - 29.500 MHz
PANSAT 25 Oct 08:19:42 08:23:25 50° 169° (S) 08:27:07 not established
STRAND 1 25 Oct 08:30:23 08:34:53 31° 262° (W) 08:39:25 ?
Hamsat 25 Oct 08:41:03 08:41:22 10° 292° (WNW) 08:41:42 145.90 MHz
Saudisat 1A 25 Oct 09:30:09 09:31:05 11° 310° (NW) 09:32:01 436.775 MHz
SO-67 25 Oct 09:35:43 09:37:10 12° 289° (WNW) 09:38:38 435.3500 MHz FM
PANSAT 25 Oct 09:59:38 10:03:26 67° 182° (S) 10:07:14 not established
RS-15 25 Oct 10:04:24 10:14:31 39° 253° (WSW) 10:25:04 29.354 - 29.394 USB, Beacon 29.352 USB
UKube-1 25 Oct 10:14:42 10:17:08 15° 95° (E) 10:19:34 145.840 MHz, 145.915 MHz
HO-68 25 Oct 10:21:10 10:28:18 63° 103° (ESE) 10:35:22 435.675 MHz FM
Oscar 11 25 Oct 10:54:17 10:58:23 43° 99° (E) 11:02:28 145.825 FM, Beacon 2401.500 USB
FUNcube-1 25 Oct 10:54:53 10:57:21 15° 94° (E) 10:59:47 145.950 - 145.970 MHz USB
Oscar 10/S400 25 Oct 11:15:28 11:50:05 31° 156° (SSE) 12:06:05 145.825 - 145.975 CW/USB, Beacon 145.810 USB
MaSat-1 25 Oct 11:15:58 11:16:44 11° 256° (WSW) 11:17:28 437.345 MHz
PANSAT 25 Oct 11:39:49 11:43:25 40° 194° (SSW) 11:47:01 not established
ZACube-1 25 Oct 11:45:01 11:49:13 72° 101° (E) 11:53:21 437.345 MHz
UKube-1 25 Oct 11:49:25 11:53:22 34° 287° (WNW) 11:57:18 145.840 MHz, 145.915 MHz
KITSAT 1 25 Oct 11:51:25 11:58:42 39° 108° (ESE) 12:05:59 435.175 FM
HO-68 25 Oct 12:10:25 12:15:20 20° 297° (WNW) 12:20:15 435.675 MHz FM
FUNcube-1 25 Oct 12:30:04 12:33:44 30° 287° (WNW) 12:37:21 145.950 - 145.970 MHz USB
Oscar 11 25 Oct 12:32:32 12:34:07 12° 292° (WNW) 12:35:43 145.825 FM, Beacon 2401.500 USB
ISS 25 Oct 12:52:51 12:56:06 53° 316° (NW) 12:59:21 145.800 FM
Oscar 19 25 Oct 13:13:05 13:15:27 13° 66° (ENE) 13:17:49 437.125 CW, 437.150 USB
Sapphire 25 Oct 13:15:32 13:19:23 19° 56° (NE) 13:23:14 437.095 MHz 1200 baud AX-25 AFSK
PANSAT 25 Oct 13:21:08 13:23:09 14° 205° (SSW) 13:25:09 not established
SO-50 25 Oct 13:29:48 13:34:11 63° 299° (WNW) 13:38:43 436.795 FM
JAS-1B 25 Oct 13:29:58 13:34:05 19° 68° (ENE) 13:38:00 435.800 - 435.900 CW/SSB
PCSat 25 Oct 13:37:14 13:42:06 33° 60° (ENE) 13:46:56 145.825 MHz
KITSAT 1 25 Oct 13:46:34 13:53:57 39° 303° (WNW) 14:01:23 435.175 FM
AO-Echo 25 Oct 13:48:29 13:51:01 14° 66° (ENE) 13:53:35 ?
Oscar 16 25 Oct 13:56:11 14:00:58 40° 73° (ENE) 14:05:45 437.025 USB, Beacon 2401.1428
Uribyol 2 25 Oct 14:17:35 14:21:51 26° 70° (ENE) 14:26:08 436.500 FM
ITAMSAT 1 25 Oct 14:23:40 14:28:02 28° 70° (ENE) 14:32:26 435.822 SSB
Gurwin Techsat 1B 25 Oct 14:47:48 14:52:01 25° 69° (ENE) 14:56:15 435.225 FM
Oscar 19 25 Oct 14:49:12 14:54:15 56° 259° (W) 14:59:18 437.125 CW, 437.150 USB
UOSAT-12 25 Oct 14:49:34 14:54:07 72° 115° (ESE) 14:58:47 437.025 FM, 437.400 FM
Sapphire 25 Oct 14:57:50 15:02:59 45° 250° (WSW) 15:08:06 437.095 MHz 1200 baud AX-25 AFSK
TMSAT-1 25 Oct 14:58:45 15:02:49 23° 69° (ENE) 15:06:53 436.925 FM
AO-27 25 Oct 15:08:31 15:13:42 86° 76° (ENE) 15:18:57 436.795 MHz FM
JAS-1B 25 Oct 15:18:40 15:24:30 41° 259° (W) 15:29:52 435.800 - 435.900 CW/SSB
AO-7 25 Oct 15:20:25 15:24:45 15° 57° (ENE) 15:29:04 29.400 - 29.500 MHz
PCSat 25 Oct 15:20:58 15:25:17 25° 254° (WSW) 15:29:36 145.825 MHz
AO-Echo 25 Oct 15:24:37 15:29:16 48° 260° (W) 15:34:05 ?
Oscar 16 25 Oct 15:36:58 15:40:23 18° 265° (W) 15:43:48 437.025 USB, Beacon 2401.1428
Uribyol 2 25 Oct 15:56:42 16:01:09 28° 262° (W) 16:05:37 436.500 FM
ITAMSAT 1 25 Oct 16:03:06 16:07:24 26° 263° (W) 16:11:44 435.822 SSB
Saudisat 1A 25 Oct 16:21:09 16:22:37 11° 50° (NE) 16:24:05 436.775 MHz
Gurwin Techsat 1B 25 Oct 16:27:08 16:31:46 31° 262° (W) 16:36:27 435.225 FM
UOSAT-12 25 Oct 16:33:26 16:34:44 11° 311° (NW) 16:36:03 437.025 FM, 437.400 FM
TMSAT-1 25 Oct 16:37:44 16:42:28 34° 262° (W) 16:47:14 436.925 FM
AO-7 25 Oct 17:08:05 17:16:22 89° 73° (ENE) 17:24:41 29.400 - 29.500 MHz
Uosat F 25 Oct 17:09:51 17:14:48 66° 75° (ENE) 17:19:47 435.120 FM
